Weather Service Report


616 
ASUS46 KPQR 210910
RWROR 

OREGON REGIONAL WEATHER ROUNDUP
NATIONAL WEATHER SERVICE PORTLAND OR
100 AM PST TUE FEB 21 2017

NOTE: "FAIR" INDICATES FEW OR NO CLOUDS BELOW 12,000 FEET WITH
NO SIGNIFICANT WEATHER AND/OR OBSTRUCTIONS TO VISIBILITY.

ORZ001>013-211000-
NORTHWEST OREGON

  
CITY           SKY/WX    TMP DP  RH WIND       PRES   REMARKS
ASTORIA        CLOUDY    43  41  93 CALM      29.69R                  
NEWPORT        RAIN      45  45 100 CALM      29.68                   
PORTLAND       LGT RAIN  41  41 100 NW3       29.67R FOG              
VANCOUVER WA   LGT RAIN  44  44 100 W3        29.66S                  
SCAPPOOSE      CLOUDY    44  43  96 W3        29.66S                  
HILLSBORO      LGT RAIN  43  42  97 NW6       29.66R                  
AURORA         LGT RAIN  46  43  89 N6        29.66S                  
MCMINNVILLE    LGT RAIN  45  43  93 N7        29.66S                  
SALEM          LGT RAIN  46  44  93 NW5       29.64S FOG              
CORVALLIS        N/A     46  45  93 CALM      29.65R                  
EUGENE         LGT RAIN  46  43  89 CALM      29.64F                  
$$

ORZ021-028-211000-
SOUTHWEST OREGON

  
CITY           SKY/WX    TMP DP  RH WIND       PRES   REMARKS
NORTH BEND     CLOUDY    46  45  93 CALM      29.65S                  
BROOKINGS      CLOUDY    51  50  96 S17G30    29.63S                  
ROSEBURG       LGT RAIN  46  44  93 CALM      29.62F                  
SEXTON SUMMIT  FOG       34  34 100 S18G28    29.56S VSB 1/2 WCI  23  
MEDFORD        MOCLDY    43  43 100 W3        29.65S                  
$$

ORZ014>016-041-211000-
COLUMBIA GORGE

  
CITY           SKY/WX    TMP DP  RH WIND       PRES   REMARKS
TROUTDALE      LGT RAIN  44  41  89 NE3       29.66R                  
THE DALLES     LGT RAIN  39  38  96 SW3       29.68F                  
$$

ORZ029>031-041-044-049-050-061>064-502-503-505>511-211000-
EASTERN OREGON

  
CITY           SKY/WX    TMP DP  RH WIND       PRES   REMARKS
REDMOND        LGT RAIN  37  34  89 W6        29.61R WCI  32          
BEND           LGT RAIN  36  36 100 CALM      29.61S                  
PRINEVILLE     LGT RAIN  39  39 100 SW5       29.61R                  
KLAMATH FALLS  LGT RAIN  38  35  89 S16       29.67R WCI  29          
LAKEVIEW       CLOUDY    34  30  86 S22G31    29.74R WCI  22          
HERMISTON      LGT RAIN  42  41  96 CALM      29.66F                  
PENDLETON      CLOUDY    40  38  93 E7        29.64F                  
JOHN DAY       RAIN      43  37  81 S17G25    29.62F                  
MEACHAM        LGT RAIN  34  30  85 CALM      29.61F                  
LA GRANDE      CLOUDY    39  34  81 N3        29.64F                  
BAKER CITY     CLOUDY    40  37  89 E13       29.65F WCI  32          
BURNS          CLOUDY    37  33  85 S15       29.70R WCI  28          
ROME             N/A     40  36  86 SE10      29.75R WCI  33          
ONTARIO        CLOUDY    40  38  93 N3        29.75S                  
$$
  

Return to Home page


Western Regional Climate Center, wrcc@dri.edu